Theta_e
319 319 320 318 309 307 311 313 309 309 305 305 306 306 303 303 303 304 302 301 298 297 297 299 307 309 311 309 308 307 307 306 307 307 307 306 306 306 308 310 312 315 315 316 317 319 320 319 320
318 319 319 313 306 307 311 309 311 308 305 305 305 304 303 302 303 302 301 299 297 297 297 298 300 307 307 306 306 302 301 299 298 298 298 298 298 298 298 299 303 308 313 313 315 316 316 318 318
317 318 316 304 303 306 311 310 307 305 306 305 303 303 303 302 302 302 300 297 296 297 297 297 298 302 302 301 300 299 298 298 298 297 297 297 297 297 297 297 296 297 305 309 312 313 313 315 315
317 316 311 306 310 308 310 308 306 305 305 305 303 300 301 302 302 301 299 297 296 297 297 297 297 296 297 297 297 298 297 297 297 296 296 296 296 296 296 295 295 301 303 305 306 309 309 310 312
316 313 305 305 307 306 306 307 306 305 305 304 304 300 300 301 301 300 298 296 296 296 296 296 296 296 296 297 297 297 297 296 296 296 296 295 295 295 295 295 295 295 297 298 301 304 307 308 307
313 309 306 307 306 305 305 308 307 305 304 303 302 300 300 300 300 299 297 296 296 296 296 296 295 296 296 297 296 296 296 296 296 295 295 295 295 295 294 295 294 294 294 295 297 301 303 306 308
308 304 304 303 305 307 305 306 305 304 303 303 302 299 299 299 299 298 296 296 296 296 296 296 296 296 296 296 296 296 296 295 295 295 295 294 294 294 294 294 294 293 293 294 294 296 296 298 304
311 302 303 304 305 308 304 305 304 304 303 302 302 298 298 299 299 298 296 296 296 295 295 295 295 296 296 296 296 295 295 295 295 294 294 293 294 294 293 293 292 292 293 293 294 295 296 296 298
311 305 304 304 304 306 304 303 303 303 303 302 302 301 301 300 298 297 296 296 295 295 295 295 295 295 295 295 295 294 294 294 294 294 294 293 293 293 292 292 292 292 292 293 294 295 296 297 298
309 307 306 304 303 302 303 305 303 303 301 300 300 301 299 299 298 297 296 296 295 295 295 295 295 295 294 294 294 294 294 293 293 293 293 293 292 292 291 291 291 291 291 292 293 294 296 297 298
305 308 305 305 305 306 303 302 303 301 299 301 302 300 299 298 297 297 296 296 295 295 295 295 294 294 294 294 294 294 293 293 293 293 292 292 292 291 291 291 290 290 290 291 292 293 295 297 298
305 303 304 304 305 304 302 302 301 302 302 304 304 302 299 298 297 296 296 296 295 295 294 294 294 293 294 294 293 293 293 293 292 292 292 291 291 290 290 290 289 289 289 290 290 291 293 296 297
303 303 303 303 304 304 303 301 301 301 302 302 301 300 298 297 297 297 296 296 295 295 294 294 294 293 293 293 293 293 292 292 291 291 291 291 290 290 289 289 289 288 288 288 289 290 292 295 296
302 302 302 303 303 303 303 301 301 301 301 300 300 299 298 297 297 297 296 296 295 294 294 294 293 293 293 292 293 292 292 291 291 291 291 290 290 289 289 288 288 288 287 287 288 288 290 293 295
303 303 302 303 303 302 304 302 300 302 300 299 299 298 297 297 297 297 296 295 295 294 294 294 293 293 293 292 292 291 291 291 290 290 290 290 289 289 288 287 287 287 287 287 287 287 289 291 294
301 300 304 303 302 301 301 303 300 302 300 299 298 298 297 297 297 296 296 295 295 295 295 294 293 293 292 292 292 291 291 290 290 290 290 289 289 288 287 287 286 286 286 287 287 287 288 291 292
299 304 302 302 302 301 300 301 298 299 298 298 298 298 298 297 296 296 296 295 295 295 295 294 293 293 292 292 291 290 290 290 290 290 289 289 289 287 286 286 286 286 286 286 286 287 287 290 291
302 302 300 301 301 300 300 299 298 299 297 298 298 298 297 297 297 296 296 295 295 295 295 294 293 292 292 292 291 290 290 290 290 289 289 289 288 287 286 286 285 286 286 286 286 286 286 289 290
299 301 302 300 300 301 299 299 298 299 298 296 297 298 297 297 298 296 296 295 295 295 295 294 293 293 292 291 291 291 291 290 289 289 289 287 287 286 286 285 285 285 285 285 285 286 286 289 290
301 302 301 301 300 300 299 299 298 298 299 299 299 299 299 298 297 296 295 295 295 295 295 294 293 293 292 291 291 290 290 290 289 288 287 287 287 286 285 285 285 285 285 285 285 285 285 286 289
301 302 301 303 300 299 297 298 298 297 298 300 299 301 301 301 299 296 295 295 295 295 295 294 293 292 292 291 290 290 289 289 289 289 288 287 286 285 285 285 284 284 284 285 285 285 284 285 289
303 301 300 300 301 301 297 303 298 299 297 295 298 299 299 300 300 298 296 296 296 296 295 294 293 292 291 291 290 290 290 289 289 288 287 286 286 285 284 284 284 284 284 284 284 285 284 285 287
302 299 299 299 299 300 300 298 299 299 300 299 297 298 298 300 301 300 298 297 296 295 295 293 293 292 291 290 290 289 289 289 288 287 287 287 285 284 284 284 283 284 284 284 284 284 284 285 287
298 299 298 296 298 296 298 298 300 299 301 302 300 300 300 299 300 300 299 297 296 295 294 293 292 292 291 290 290 289 289 288 288 288 287 286 285 285 284 283 283 283 284 284 284 284 284 284 286
299 300 295 298 294 300 296 298 300 300 297 299 300 302 301 300 299 300 299 297 295 295 295 293 292 292 291 290 290 289 288 288 288 288 286 286 285 284 284 283 283 283 283 283 284 284 284 284 285
299 299 301 299 298 300 297 299 302 299 300 300 300 300 301 300 299 299 300 298 296 295 294 293 292 292 290 290 289 289 288 287 287 287 286 285 284 284 283 283 283 282 282 283 283 284 284 284 284
300 300 297 291 285 295 302 301 300 300 297 298 299 300 301 300 300 299 299 298 296 295 295 294 292 291 290 290 289 288 288 287 287 287 285 284 284 284 283 283 282 282 282 282 283 283 284 284 284
298 297 299 294 296 296 299 299 303 303 305 300 295 298 301 301 299 298 298 297 296 295 294 293 292 291 290 289 289 288 288 287 287 286 285 284 284 283 283 283 282 282 281 282 282 283 283 284 284
296 297 296 297 297 298 297 302 298 300 300 303 298 301 302 301 300 299 297 297 296 295 294 293 292 291 290 289 288 288 287 287 287 286 285 284 283 283 283 282 282 281 281 281 282 282 283 283 284
296 297 297 299 298 294 296 298 300 298 299 299 301 303 303 301 300 299 297 296 295 294 293 292 291 290 290 289 288 287 287 287 287 285 284 284 283 283 283 282 281 281 280 280 281 281 282 283 283
Wind_Speed
6 5 3 4 5 6 2 2 3 4 3 4 7 7 9 9 3 3 3 7 11 13 14 15 17 18 19 19 21 24 25 26 26 27 27 28 29 30 29 29 29 29 28 27 27 28 28 26 24
6 4 4 5 5 4 3 2 5 4 13 16 12 8 7 3 4 3 2 8 12 14 14 16 17 18 18 21 21 24 27 29 30 30 32 33 33 34 34 33 31 30 30 28 28 28 27 28 28
5 3 4 4 3 4 5 4 6 12 15 3 5 7 5 4 3 1 5 8 10 11 13 16 17 18 19 21 23 25 26 27 29 30 31 32 34 35 37 37 36 33 31 30 30 28 28 27 29
5 4 7 4 3 0 2 5 10 13 4 3 13 8 6 4 4 2 3 5 8 10 14 16 17 18 20 22 23 23 26 26 28 31 33 33 34 35 36 36 36 34 33 31 30 31 29 29 27
5 6 5 5 2 1 2 8 19 5 6 6 4 6 6 6 5 2 1 3 6 10 13 14 16 19 20 20 22 23 25 27 29 30 31 32 32 33 34 35 36 37 37 36 34 32 29 30 29
5 5 5 3 2 1 2 15 10 4 6 8 7 9 6 8 5 2 1 3 7 10 12 13 16 17 17 20 22 24 25 27 28 29 30 31 32 33 34 34 35 35 36 37 36 33 32 29 30
7 4 4 6 6 4 5 8 7 6 7 4 12 6 7 11 8 6 2 3 6 8 9 11 14 16 17 19 21 23 24 26 27 29 29 31 32 34 34 35 35 36 35 35 34 35 33 31 30
6 6 4 3 6 5 10 9 10 6 3 12 7 6 6 17 12 8 3 2 4 6 8 10 12 15 17 20 21 22 24 25 27 29 30 32 34 35 36 37 37 37 37 35 34 33 35 34 32
5 5 2 7 8 5 13 5 8 7 11 6 7 5 5 19 15 10 6 3 3 4 7 10 12 15 18 20 21 23 24 26 27 29 30 32 35 36 38 37 37 37 37 36 35 35 35 35 34
4 4 8 7 8 6 15 8 15 7 8 5 7 9 16 18 14 11 8 6 3 4 6 9 12 15 18 19 21 23 25 26 29 30 32 34 35 36 37 38 39 39 39 38 38 38 36 37 35
3 3 4 2 8 23 15 13 11 13 4 13 19 21 21 18 15 12 10 5 2 4 6 8 12 15 17 18 21 22 25 27 29 30 32 33 35 36 38 40 41 40 40 40 40 40 39 39 37
4 3 1 3 8 15 13 17 8 16 4 9 14 20 21 18 15 12 9 5 2 3 6 9 11 13 16 18 20 22 24 27 28 31 32 35 37 38 39 39 40 41 40 40 40 42 41 39 39
3 2 5 6 11 14 17 5 5 12 7 10 20 21 19 17 16 14 10 6 4 3 5 8 11 12 15 17 19 22 24 25 27 29 31 34 36 38 39 39 39 40 39 40 40 41 43 40 38
4 10 6 5 8 7 5 2 2 9 11 18 23 22 20 19 17 16 13 8 5 3 5 8 10 13 15 17 19 21 22 24 26 28 31 32 35 37 38 38 37 38 38 38 39 40 43 43 37
5 5 4 4 1 2 5 5 8 11 19 22 23 21 20 20 20 17 14 10 7 4 5 7 10 12 13 15 18 20 21 23 25 27 30 31 33 35 36 36 35 36 37 38 38 39 40 43 38
5 5 2 2 1 2 2 8 3 15 24 24 24 23 23 25 22 19 16 13 9 7 5 6 9 11 12 14 15 18 19 21 24 26 28 31 33 34 33 33 33 34 35 37 38 40 41 43 41
6 2 3 5 6 3 3 7 3 15 24 26 27 28 28 26 25 23 19 16 12 9 6 6 8 9 10 12 14 16 18 20 23 25 27 30 32 33 32 31 32 32 34 36 38 38 39 43 43
6 4 4 5 2 3 3 17 4 10 24 31 31 32 30 29 29 25 22 19 16 12 9 7 7 9 10 11 12 14 15 18 22 25 27 29 30 32 32 29 29 32 33 34 36 39 38 38 40
7 6 5 3 2 5 7 16 11 17 25 28 34 35 36 34 29 27 25 22 19 16 12 8 8 9 10 9 9 11 15 18 20 23 26 27 30 31 32 30 30 30 32 33 35 37 38 38 42
4 4 4 1 3 4 5 16 13 18 22 36 38 41 43 38 34 33 31 27 23 17 14 10 8 9 10 10 11 13 15 17 19 22 25 29 30 29 30 30 29 29 30 31 33 36 38 36 37
2 4 3 2 3 2 6 9 6 7 22 26 36 42 43 44 41 38 36 32 26 22 16 13 10 8 9 9 10 12 13 15 19 22 25 28 30 30 28 26 26 26 28 30 32 33 35 36 33
3 3 5 4 2 3 2 7 5 5 8 10 25 39 41 42 41 41 38 35 31 25 20 16 11 9 9 8 9 11 14 17 20 24 26 27 28 28 27 24 23 23 24 27 29 30 31 32 31
2 3 5 3 4 2 3 2 7 4 7 11 17 32 37 41 41 43 43 37 32 27 21 17 13 9 8 8 9 10 12 16 19 21 23 26 24 25 24 23 21 20 19 22 26 27 28 29 27
10 6 7 5 3 3 5 3 4 5 7 4 2 14 28 34 39 40 40 38 34 29 25 20 14 11 8 8 8 9 12 15 18 22 25 26 25 24 22 22 20 19 18 19 23 25 25 27 26
3 5 3 4 3 6 4 3 10 9 7 6 7 4 11 22 34 41 43 43 39 34 29 22 16 13 9 8 7 8 11 14 18 23 26 27 26 24 23 23 21 18 17 18 20 22 22 24 25
4 3 5 7 3 4 4 7 7 6 6 11 14 14 13 20 27 37 41 44 42 36 30 24 19 15 10 8 6 7 9 12 17 21 23 25 25 24 23 22 21 19 17 17 18 20 21 22 24
6 4 3 7 1 3 5 9 10 9 8 12 12 9 14 20 24 32 39 43 42 37 31 26 21 17 12 9 5 5 7 11 15 19 21 23 22 22 22 21 20 18 16 16 17 18 20 20 22
4 4 3 3 2 4 5 6 9 6 5 3 7 23 21 19 24 29 36 41 42 37 31 27 23 18 13 10 5 3 5 9 14 17 19 20 19 20 20 20 19 17 17 17 16 17 18 20 20
4 2 2 3 4 5 2 6 8 10 10 6 9 14 19 22 24 28 33 39 41 38 33 29 25 20 15 10 5 3 4 8 13 15 17 18 19 19 19 19 18 17 18 19 18 16 17 19 20
2 7 8 5 6 3 2 7 2 8 7 9 12 10 13 18 22 26 30 36 42 40 37 32 27 22 17 11 7 4 2 6 11 13 15 16 17 18 19 18 17 16 17 19 20 19 17 18 19
Wind_Direction
137 103 108 22 56 65 70 203 127 123 83 64 111 120 105 57 54 167 283 326 347 352 353 359 14 21 20 17 18 20 19 19 17 15 10 5 2 360 358 355 353 354 350 348 343 341 336 329 325
157 110 81 82 86 76 274 247 161 152 138 112 94 90 58 81 85 118 154 353 351 355 357 5 10 25 22 26 24 19 16 12 7 3 1 359 357 355 353 351 349 351 351 346 342 340 336 331 326
152 138 68 84 93 146 174 196 142 127 138 136 111 84 105 114 107 195 23 1 348 351 7 7 14 22 25 23 20 15 7 4 3 0 358 356 354 352 349 348 347 346 344 345 343 336 330 328 327
127 75 64 75 76 340 220 144 139 133 131 146 127 79 101 121 170 110 24 352 345 356 9 9 9 18 20 18 11 6 5 4 1 360 359 357 356 354 352 350 348 349 348 344 337 336 334 323 322
111 80 63 78 66 12 33 140 150 141 135 137 155 146 114 134 134 104 23 338 346 7 13 10 12 18 18 9 7 4 4 3 2 0 359 358 356 355 353 351 349 347 345 343 341 337 330 325 316
69 77 69 148 159 70 48 148 161 126 144 140 123 122 151 166 162 185 225 332 3 8 10 14 18 17 9 8 6 6 3 2 1 360 0 358 357 355 355 351 347 346 345 341 340 338 332 324 322
103 75 146 139 155 152 171 161 157 146 146 180 147 118 154 176 183 194 212 341 357 2 5 12 15 10 8 8 6 4 1 1 1 1 0 358 357 355 351 348 346 346 346 343 338 334 332 325 319
103 91 111 174 180 211 163 137 152 179 167 148 175 177 182 185 183 187 197 292 348 358 7 14 9 5 5 7 4 1 0 2 1 2 0 359 357 355 352 351 351 351 348 346 343 336 330 329 319
115 74 168 196 152 194 165 134 162 155 148 171 190 178 186 177 182 186 202 251 322 349 1 9 3 3 5 3 1 0 2 2 1 2 1 359 356 354 354 352 351 349 348 348 346 342 335 331 329
75 117 208 189 175 166 166 161 157 159 158 191 176 173 161 175 183 190 206 231 275 346 1 1 359 3 3 359 358 360 1 1 2 2 1 359 356 355 353 351 350 349 349 349 349 346 342 337 334
42 165 154 173 177 164 150 146 170 152 222 203 194 176 173 181 187 198 214 226 293 343 355 353 359 359 357 355 358 358 359 0 1 1 360 357 356 355 354 353 351 351 350 350 347 347 345 343 343
83 40 21 120 172 152 149 149 182 186 190 218 207 187 181 186 189 197 210 221 281 327 342 353 354 356 352 355 355 356 359 1 0 1 358 357 356 355 355 354 352 352 352 349 349 347 344 342 343
78 116 59 122 149 138 148 162 201 212 229 179 178 184 187 189 194 200 211 216 241 299 340 344 350 349 351 353 354 356 359 359 0 358 358 356 354 355 354 353 351 350 351 350 348 347 346 342 345
82 91 92 105 118 134 134 176 193 209 183 170 181 187 193 197 202 208 212 215 231 271 328 338 344 349 350 350 352 355 358 359 357 357 358 355 354 354 352 351 351 349 351 351 350 350 349 347 344
78 70 49 25 48 112 148 252 228 197 182 182 189 195 197 202 209 213 217 216 224 252 305 332 339 343 345 347 351 355 356 355 356 358 356 354 354 352 351 349 352 353 351 351 350 351 352 350 349
61 50 84 278 158 140 99 264 270 198 190 196 200 202 206 211 213 215 218 218 223 238 279 316 334 341 341 344 349 352 352 354 356 357 354 354 353 350 349 349 352 353 353 352 351 352 354 355 355
16 199 198 307 197 154 171 273 360 199 201 209 209 211 213 213 213 215 218 220 225 236 261 298 325 331 334 342 348 350 351 352 355 355 355 353 350 349 349 349 350 353 353 353 352 354 358 358 356
185 202 222 230 207 119 270 262 264 214 213 222 219 219 219 218 220 218 219 221 224 233 248 278 308 326 333 336 348 346 349 352 355 353 351 349 350 349 345 348 352 353 354 354 354 355 0 4 0
140 155 176 233 190 155 246 269 261 229 222 233 231 228 225 223 223 220 222 223 225 231 241 264 292 318 323 329 335 345 354 357 351 349 349 349 351 346 341 347 351 356 355 356 355 356 360 5 6
124 131 208 191 148 159 280 271 251 222 225 220 222 228 229 225 219 217 218 220 227 233 239 255 279 306 320 329 340 347 352 353 350 348 352 351 347 344 341 341 347 352 355 355 356 359 360 3 11
144 156 187 176 146 174 299 277 252 251 234 229 228 236 236 228 220 216 215 219 223 229 236 246 262 291 311 320 338 344 347 346 348 351 351 351 348 344 339 339 342 349 354 357 358 359 3 1 8
184 157 128 135 123 239 316 282 291 237 261 229 227 226 228 229 225 222 217 217 222 225 228 238 250 275 296 313 330 343 345 350 349 350 353 352 347 343 340 340 340 346 352 355 358 359 2 4 5
171 127 113 95 89 25 301 308 264 40 289 258 222 229 227 231 225 221 219 221 222 222 228 234 241 260 281 302 324 338 346 346 349 349 350 352 350 345 344 344 340 339 350 354 356 358 2 7 6
149 77 56 55 54 359 245 199 262 182 214 273 223 232 231 226 223 224 221 218 216 217 222 228 234 249 270 289 319 332 343 347 346 348 351 355 353 351 350 350 345 341 346 351 355 358 1 5 7
61 87 353 357 10 224 321 243 260 265 226 230 241 234 221 224 219 216 214 211 211 213 217 222 227 239 256 277 307 328 343 349 347 349 352 354 353 354 356 358 352 347 345 347 351 355 359 3 9
196 173 163 200 191 257 23 243 251 228 251 243 257 255 239 215 215 217 214 213 211 212 215 219 222 231 244 263 291 327 343 347 348 350 352 355 353 354 357 358 352 349 347 344 346 351 358 2 8
185 203 152 101 24 63 232 287 285 266 246 228 219 226 219 216 216 215 214 213 210 211 214 217 219 224 235 250 275 323 340 344 348 349 355 356 352 356 359 356 355 352 347 344 345 347 354 359 6
167 157 94 353 172 250 278 281 243 301 270 178 212 225 224 217 217 217 215 211 209 211 212 212 216 222 231 240 254 304 328 345 348 350 359 356 357 0 360 358 355 356 351 348 346 346 350 358 4
133 221 31 142 166 185 216 253 223 234 228 214 230 230 224 219 216 216 215 212 209 209 210 212 215 218 226 234 238 258 316 345 348 351 2 0 2 5 5 2 360 0 358 352 350 351 347 356 2
269 191 173 146 230 257 130 268 269 256 271 246 238 232 231 229 221 219 217 212 207 208 208 211 214 214 222 226 231 231 300 343 349 355 7 5 7 9 11 7 6 6 2 356 355 352 349 351 360